{"data":{"norad_id":68668,"epoch":"2026-09-20T02:35:14.568000Z","epoch_age_seconds":78016,"freshness":"FRESH","line1":"1 68668U 26077G   26263.10780750  .00022185  00000+0  68715-3 0  9990","line2":"2 68668  97.2852 133.0198 0000980 189.4881 170.6343 15.33461706 24950","mean_motion":15.33461706,"eccentricity":9.8e-5,"inclination_deg":97.2852,"raan_deg":133.0198,"arg_perigee_deg":189.4881,"mean_anomaly_deg":170.6343,"bstar":0.00068715,"rev_number":2495,"period_min":93.905181613971,"perigee_km":464.82279384103,"apogee_km":466.16414541308,"semimajor_km":6843.6304696271,"source":"CELESTRAK","updated_at":"2026-09-20T09:00:43.950766Z"}}